Location: Ahausen
(50.4985°N, 8.2722°E)
Time: 16:18:29
(UTC+00:00)

Cosmos 990 Rocket - Pass Details

Date: 18 September 2020
Orbit: 747 x 769 km, 74.0° (Epoch: 21 October)

Event Time Altitude Azimuth Distance (km) Brightness Sun altitude
Rises 17:57:51 0° 191° (S) 3,179 7.2 -4.7°
Reaches altitude 10° 18:00:13 10° 187° (S) 2,259 6.4 -5.1°
Maximum altitude 18:05:14 60° 109° (ESE) 856 4.0 -5.9°
Drops below altitude 10° 18:10:18 10° 30° (NNE) 2,278 6.3 -6.7°
Sets 18:12:42 0° 27° (NNE) 3,209 7.1 -7.1°
